Tracking 18984 objects as of 24-Feb-2018
HD Live streaming from Space Station
objects crossing your sky now

FENGYUN 1C DEB

Track FENGYUN 1C DEB now!
10-day predictions


NORAD ID: 30053
Int'l Code: 1999-025PE
Perigee: 695.0 km
Apogee: 1,263.9 km
Inclination: 98.6 °
Period: 104.5 minutes
Semi major axis: 7350 km
RCS: 0.0436 m2 (small)
Launch date: May 10, 1999
Source: People's Republic of China (PRC)
Launch site: Taiyaun Space Center, China (TSC)

Note: This is SATELLITE DEBRIS
aabbcc
Your satellite tracking list
Your tracking list is empty




NASA's NSSDC Master Catalog

Two Line Element Set (TLE):
1 30053U 99025PE  18054.47745404  .00000624  00000-0  38008-3 0  9993
2 30053  98.5917  66.0834 0387004 164.2148 353.4419 13.77621938556425
Source of the keplerian elements: AFSPC